When you browse on this site, cookies collect data to enhance your experience and personalize the content and advertising you see.
Visit our Privacy Policy to learn more. By continuing to use the site, you agree to this use of cookies and data.
  • In Österreich
  • Länderverzeichnis
  • Für 7 Tage
  • Wassertemperatur
  • Wetterkarte
  • News
  • Widgets
  • user-avatar
    Anmelden

    Stündliche Wetter San Agustín Tlaxiaca

    Heute, 17 August, Samstag

    Zeit Temperatur Niederschläge Wind Luftdruck Luftfeuchtigkeit
    00:00 +12°C° 0 mm 0 m/S 574 mmHg 87%
    01:00 +12°C° 0 mm 0 m/S 573 mmHg 86%
    02:00 +12°C° 0 mm 0 m/S 573 mmHg 86%
    03:00 +11°C° 0 mm 0 m/S 573 mmHg 86%
    04:00 +11°C° 0 mm 0 m/S 573 mmHg 86%
    05:00 +11°C° 0 mm 0 m/S 573 mmHg 86%
    06:00 +13°C° 0 mm 0 m/S 574 mmHg 78%
    07:00 +15°C° 0 mm 0 m/S 575 mmHg 71%
    08:00 +18°C° 0 mm 0 m/S 577 mmHg 63%
    09:00 +21°C° 0 mm 1 m/S 577 mmHg 58%
    10:00 +23°C° 0 mm 1 m/S 577 mmHg 53%
    11:00 +24°C° 0 mm 1 m/S 578 mmHg 48%
    12:00 +24°C° 0.1 mm 2 m/S 577 mmHg 49%
    13:00 +24°C° 0.1 mm 3 m/S 577 mmHg 49%
    14:00 +25°C° 0.1 mm 4 m/S 576 mmHg 49%
    15:00 +22°C° 0.6 mm 4 m/S 575 mmHg 56%
    16:00 +21°C° 0.6 mm 4 m/S 575 mmHg 63%
    17:00 +20°C° 0.6 mm 4 m/S 574 mmHg 70%
    18:00 +18°C° 0.2 mm 3 m/S 574 mmHg 77%
    19:00 +17°C° 0.2 mm 3 m/S 574 mmHg 83%
    20:00 +15°C° 0.2 mm 2 m/S 574 mmHg 89%
    21:00 +15°C° 0 mm 2 m/S 574 mmHg 87%
    22:00 +14°C° 0 mm 1 m/S 574 mmHg 85%
    23:00 +14°C° 0 mm 1 m/S 573 mmHg 83%

    Morgen, 18 August, Sonntag

    Zeit Temperatur Niederschläge Wind Luftdruck Luftfeuchtigkeit
    00:00 +13°C° 0 mm 1 m/S 573 mmHg 81%
    01:00 +12°C° 0 mm 0 m/S 573 mmHg 80%
    02:00 +11°C° 0 mm 0 m/S 572 mmHg 78%
    03:00 +11°C° 0 mm 0 m/S 572 mmHg 79%
    04:00 +11°C° 0 mm 0 m/S 572 mmHg 79%
    05:00 +11°C° 0 mm 0 m/S 572 mmHg 80%
    06:00 +13°C° 0 mm 0 m/S 573 mmHg 73%
    07:00 +15°C° 0 mm 0 m/S 574 mmHg 66%
    08:00 +17°C° 0 mm 0 m/S 576 mmHg 59%
    09:00 +21°C° 0 mm 1 m/S 576 mmHg 53%
    10:00 +22°C° 0 mm 1 m/S 577 mmHg 47%
    11:00 +24°C° 0 mm 2 m/S 577 mmHg 41%
    12:00 +24°C° 0 mm 3 m/S 577 mmHg 42%
    13:00 +25°C° 0 mm 4 m/S 576 mmHg 42%
    14:00 +25°C° 0 mm 5 m/S 576 mmHg 43%
    15:00 +23°C° 0.2 mm 5 m/S 575 mmHg 52%
    16:00 +21°C° 0.2 mm 4 m/S 575 mmHg 61%
    17:00 +20°C° 0.2 mm 4 m/S 574 mmHg 70%
    18:00 +18°C° 0.4 mm 4 m/S 574 mmHg 77%
    19:00 +17°C° 0.4 mm 3 m/S 574 mmHg 84%
    20:00 +15°C° 0.4 mm 2 m/S 574 mmHg 91%
    21:00 +15°C° 0 mm 2 m/S 573 mmHg 92%
    22:00 +14°C° 0 mm 2 m/S 573 mmHg 92%
    23:00 +13°C° 0 mm 1 m/S 573 mmHg 93%

    übermorgen, 19 August, Montag

    Zeit Temperatur Niederschläge Wind Luftdruck Luftfeuchtigkeit
    00:00 +13°C° 0 mm 1 m/S 573 mmHg 93%
    01:00 +13°C° 0 mm 1 m/S 572 mmHg 94%
    02:00 +13°C° 0 mm 1 m/S 572 mmHg 94%
    03:00 +13°C° 0 mm 1 m/S 572 mmHg 94%
    04:00 +13°C° 0 mm 1 m/S 572 mmHg 94%
    05:00 +13°C° 0 mm 1 m/S 573 mmHg 94%
    06:00 +14°C° 0 mm 1 m/S 573 mmHg 88%
    07:00 +15°C° 0 mm 1 m/S 574 mmHg 82%
    08:00 +16°C° 0 mm 1 m/S 575 mmHg 76%
    09:00 +18°C° 0 mm 2 m/S 575 mmHg 70%
    10:00 +19°C° 0 mm 3 m/S 576 mmHg 64%
    11:00 +21°C° 0 mm 4 m/S 576 mmHg 58%
    12:00 +21°C° 0.4 mm 4 m/S 576 mmHg 60%
    13:00 +21°C° 0.4 mm 5 m/S 575 mmHg 62%
    14:00 +21°C° 0.4 mm 6 m/S 575 mmHg 64%
    15:00 +20°C° 0.1 mm 6 m/S 574 mmHg 67%
    16:00 +19°C° 0.1 mm 5 m/S 574 mmHg 69%
    17:00 +17°C° 0.1 mm 5 m/S 574 mmHg 72%
    18:00 +17°C° 0 mm 4 m/S 574 mmHg 78%
    19:00 +14°C° 0 mm 3 m/S 574 mmHg 85%
    20:00 +14°C° 0 mm 2 m/S 574 mmHg 91%
    21:00 +13°C° 0 mm 2 m/S 574 mmHg 91%
    22:00 +13°C° 0 mm 2 m/S 574 mmHg 91%
    23:00 +12°C° 0 mm 2 m/S 573 mmHg 90%

    20 August, Dienstag

    Zeit Temperatur Niederschläge Wind Luftdruck Luftfeuchtigkeit
    00:00 +12°C° 0 mm 1 m/S 573 mmHg 90%
    01:00 +11°C° 0 mm 1 m/S 572 mmHg 90%
    02:00 +10°C° 0 mm 1 m/S 572 mmHg 91%
    03:00 +10°C° 0 mm 1 m/S 572 mmHg 90%
    04:00 +9°C° 0 mm 1 m/S 572 mmHg 89%
    05:00 +9°C° 0 mm 1 m/S 572 mmHg 89%
    06:00 +11°C° 0 mm 1 m/S 573 mmHg 80%
    07:00 +13°C° 0 mm 1 m/S 574 mmHg 71%
    08:00 +15°C° 0 mm 1 m/S 575 mmHg 63%
    09:00 +17°C° 0 mm 2 m/S 576 mmHg 57%
    10:00 +19°C° 0 mm 3 m/S 577 mmHg 52%
    11:00 +21°C° 0 mm 4 m/S 577 mmHg 46%
    12:00 +21°C° 0 mm 5 m/S 577 mmHg 48%
    13:00 +21°C° 0 mm 6 m/S 576 mmHg 51%
    14:00 +21°C° 0 mm 6 m/S 576 mmHg 53%
    15:00 +20°C° 0 mm 6 m/S 575 mmHg 59%
    16:00 +19°C° 0 mm 6 m/S 575 mmHg 66%
    17:00 +16°C° 0 mm 6 m/S 575 mmHg 72%
    18:00 +15°C° 0 mm 5 m/S 575 mmHg 77%
    19:00 +14°C° 0 mm 3 m/S 575 mmHg 82%
    20:00 +14°C° 0 mm 2 m/S 575 mmHg 87%
    21:00 +13°C° 0 mm 2 m/S 575 mmHg 89%
    22:00 +13°C° 0 mm 2 m/S 575 mmHg 91%
    23:00 +12°C° 0 mm 1 m/S 574 mmHg 93%

    21 August, Mittwoch

    Zeit Temperatur Niederschläge Wind Luftdruck Luftfeuchtigkeit
    00:00 +12°C° 0 mm 1 m/S 574 mmHg 93%
    01:00 +12°C° 0 mm 1 m/S 574 mmHg 92%
    02:00 +12°C° 0 mm 1 m/S 574 mmHg 91%
    03:00 +12°C° 0 mm 1 m/S 574 mmHg 92%
    04:00 +11°C° 0 mm 1 m/S 574 mmHg 92%
    05:00 +11°C° 0 mm 1 m/S 573 mmHg 92%
    06:00 +12°C° 0 mm 1 m/S 574 mmHg 85%
    07:00 +14°C° 0 mm 1 m/S 575 mmHg 79%
    08:00 +15°C° 0 mm 1 m/S 576 mmHg 72%
    09:00 +16°C° 0 mm 2 m/S 576 mmHg 68%
    10:00 +18°C° 0 mm 2 m/S 576 mmHg 64%
    11:00 +19°C° 0 mm 2 m/S 577 mmHg 59%
    12:00 +19°C° 0.3 mm 3 m/S 576 mmHg 61%
    13:00 +19°C° 0.3 mm 3 m/S 576 mmHg 63%
    14:00 +20°C° 0.3 mm 4 m/S 575 mmHg 65%
    15:00 +19°C° 0.7 mm 4 m/S 575 mmHg 70%
    16:00 +18°C° 0.7 mm 4 m/S 575 mmHg 74%
    17:00 +17°C° 0.7 mm 4 m/S 574 mmHg 79%
    18:00 +16°C° 0.2 mm 3 m/S 574 mmHg 83%
    19:00 +14°C° 0.2 mm 3 m/S 575 mmHg 88%
    20:00 +14°C° 0.2 mm 2 m/S 575 mmHg 92%
    21:00 +14°C° 0.2 mm 2 m/S 575 mmHg 92%
    22:00 +14°C° 0.2 mm 2 m/S 575 mmHg 92%
    23:00 +14°C° 0.2 mm 1 m/S 575 mmHg 92%

    22 August, Donnerstag

    Zeit Temperatur Niederschläge Wind Luftdruck Luftfeuchtigkeit
    00:00 +14°C° 0.1 mm 1 m/S 575 mmHg 92%
    01:00 +13°C° 0.1 mm 1 m/S 574 mmHg 93%
    02:00 +12°C° 0.1 mm 0 m/S 574 mmHg 93%
    03:00 +12°C° 0 mm 0 m/S 574 mmHg 93%
    04:00 +11°C° 0 mm 0 m/S 573 mmHg 94%
    05:00 +11°C° 0 mm 0 m/S 573 mmHg 94%
    06:00 +13°C° 0 mm 0 m/S 574 mmHg 88%
    07:00 +14°C° 0 mm 0 m/S 575 mmHg 81%
    08:00 +16°C° 0 mm 0 m/S 576 mmHg 74%
    09:00 +17°C° 0.5 mm 0 m/S 576 mmHg 70%
    10:00 +20°C° 0.5 mm 1 m/S 577 mmHg 66%
    11:00 +21°C° 0.5 mm 1 m/S 577 mmHg 62%
    12:00 +22°C° 1.2 mm 1 m/S 577 mmHg 61%
    13:00 +21°C° 1.2 mm 2 m/S 576 mmHg 61%
    14:00 +21°C° 1.2 mm 3 m/S 576 mmHg 61%
    15:00 +20°C° 1.4 mm 3 m/S 576 mmHg 67%
    16:00 +19°C° 1.4 mm 3 m/S 575 mmHg 72%
    17:00 +18°C° 1.4 mm 4 m/S 575 mmHg 78%
    18:00 +17°C° 0.9 mm 3 m/S 575 mmHg 82%
    19:00 +16°C° 0.9 mm 2 m/S 575 mmHg 86%
    20:00 +15°C° 0.9 mm 2 m/S 575 mmHg 91%
    21:00 +15°C° 1.2 mm 2 m/S 575 mmHg 90%
    22:00 +14°C° 1.2 mm 2 m/S 575 mmHg 90%
    23:00 +14°C° 1.2 mm 1 m/S 575 mmHg 90%
    Mehr zeigen